Regional Weather Roundup
Issued by NWS Cleveland, OH

Home | Current Version | Previous Version | Graphics & Text | Print | Product List | Glossary On
Versions: 1 2 3 4 5 6 7 8 9 10 11 12 13 14 15 16 17 18 19 20 21 22 23 24 25 26 27 28 29 30 31 32 33 34 35 36 37 38 39 40 41 42 43 44 45 46 47 48 49 50
000
ASUS41 KCLE 171212
RWRCLE
OHIO REGIONAL WEATHER ROUNDUP
NATIONAL WEATHER SERVICE WILMINGTON, OH
700 AM EST TUE JAN 17 2017

NOTE: "FAIR" INDICATES FEW OR NO CLOUDS BELOW 12,000 FEET WITH NO
SIGNIFICANT WEATHER AND/OR OBSTRUCTIONS TO VISIBILITY.

OHZ001>008-015>018-024>027-034-035-043-044-171300-
   NORTHWEST OHIO

CITY           SKY/WX    TMP DP  RH WIND       PRES   REMARKS
DEFIANCE       RAIN      51  49  92 S10G20    29.79F FOG
FINDLAY        LGT RAIN  51  48  89 SE9       29.81F FOG
TOLEDO EXPRESS FOG       38  38 100 CALM      29.80F VSB 1/2
TOLEDO EXEC    FOG       38  38 100 E8        29.81F VSB 1/4
LIMA           CLOUDY    55  54  96 S13       29.81F
$$

OHZ009>014-019>023-028>033-038-089-171300-
   NORTHEAST OHIO

CITY           SKY/WX    TMP DP  RH WIND       PRES   REMARKS
CLE-HOPKINS    CLOUDY    50  47  89 S9        29.90F
CLE-LAKEFRONT  RAIN      50  47  89 S17       29.87F
CUY CO. ARPT   LGT RAIN  50  30  46 S14       29.90
LORAIN-ELYRIA  CLOUDY    47  44  90 S14       29.87F
ASHTABULA      CLOUDY    43  42  97 SE9       29.94F
AKRON-CANTON   CLOUDY    47  44  90 S13       29.92F FOG
WOOSTER        CLOUDY    49  48  97 S12G22    29.90F
MANSFIELD      CLOUDY    51  51 100 S13       29.87F
YOUNGSTOWN     LGT RAIN  44  42  93 SE8       29.95F FOG
$$

OHZ042-051>053-060>062-070>072-077>081-171300-
  SOUTHWEST OHIO

CITY           SKY/WX    TMP DP  RH WIND       PRES   REMARKS
CINC-COVINGTON CLOUDY    59  57  93 SW12G23   29.90R
CINC-LUNKEN    CLOUDY    59  57  93 S12       29.91S
HAMILTON       CLOUDY    59  57  93 S10G17    29.89F
DAYTON         CLOUDY    56  55  97 S16       29.87S
WRIGHT-PAT AFB MOCLDY    57  57 100 S17G24    29.87S
DAYTON GENERAL CLOUDY    57  55  93 S12       29.88R
WILMINGTON     CLOUDY    56  55  97 S18G24    29.90S
$$

OHZ036-037-039>041-045>050-054>059-063>069-073>076-082>088-171300-
  CENTRAL AND SOUTHEAST OHIO

CITY           SKY/WX    TMP DP  RH WIND       PRES   REMARKS
COLUMBUS       LGT RAIN  56  55  97 S10       29.90F
OSU AIRPORT    RAIN      53  53 100 SE9       29.88F FOG
BOLTON FIELD   CLOUDY    52  52 100 S7        29.90F
RICKENBACK AFB LGT RAIN  54  54 100 S15       29.90S
NEWARK         CLOUDY    54  51  90 S8        29.91F
MARION         CLOUDY    53  51  93 S16       29.87F
LANCASTER      CLOUDY    57  54  89 S16       29.93S
ZANESVILLE     CLOUDY    55  52  89 S12G22    29.93F
NEW PHILLY     CLOUDY    47  46  97 SE7       29.95F FOG
$$




USA.gov is the U.S. government's official web portal to all federal, state and local government web resources and services.